This demonstration page uses our WeatherBlox Daily Observations layout. Learn more.

Left ArrowRight Arrow

Hourly Observations for October 18, 2016

Temp ( °F °C ) Dew Point ( °F °C ) Humidity (%) Winds ( mph kmh ) Pressure ( in mb ) Visibility ( mi km ) Precip ( " mm )
12:51 am 00:51 Clear 57 13.9 36 2.2 45 45 SE 3 6 29.81 1010 10 16 0.00 0.03
1:51 am 01:51 Clear 58 14.4 34 1.1 41 41 Calm 29.82 1010 10 16 0.00 0.00
2:51 am 02:51 Clear 54 12.2 37 2.8 53 53 SE 6 9 29.82 1010 10 16 0.00 0.00
3:51 am 03:51 Clear 53 11.7 35 1.7 51 51 ESE 3 6 29.83 1010 10 16 0.00 0.03
4:51 am 04:51 Clear 52 11.1 36 2.2 55 55 SE 3 6 29.84 1011 10 16 0.00 0.00
5:51 am 05:51 Clear with Light Rain 52 11.1 35 1.7 53 53 SE 5 7 29.88 1012 10 16 0.00 0.03
6:51 am 06:51 Sunny 51 10.6 36 2.2 56 56 ESE 5 7 29.91 1013 10 16 0.00 0.03
7:51 am 07:51 Sunny 60 15.6 35 1.7 39 39 SE 6 9 29.92 1013 10 16 0.00 0.00
8:51 am 08:51 Sunny 66 18.9 38 3.3 36 36 Calm 29.92 1013 10 16 0.00 0.00
9:51 am 09:51 Sunny 72 22.2 39 3.9 30 30 Calm 29.91 1013 10 16 0.00 0.00
10:51 am 10:51 Sunny 77 25 39 3.9 26 26 VRB 3 6 29.89 1012 10 16 0.00 0.00
11:51 am 11:51 Sunny 80 26.7 39 3.9 23 23 WSW 5 7 29.87 1011 10 16 0.00 0.00
12:51 pm 12:51 Sunny 82 27.8 37 2.8 20 20 Calm 29.83 1010 10 16 0.00 0.00
1:51 pm 13:51 Sunny 85 29.4 38 3.3 19 19 VRB 5 7 29.79 1009 10 16 0.00 0.00
2:51 pm 14:51 Sunny 87 30.6 36 2.2 16 16 WNW 12 19 29.77 1008 10 16 0.00 0.00
3:51 pm 15:51 Sunny 86 30 36 2.2 17 17 W 13 20 29.77 1008 10 16 0.00 0.00
4:51 pm 16:51 Sunny 85 29.4 35 1.7 17 17 NW 10 17 29.77 1008 10 16 0.00 0.00
5:51 pm 17:51 Clear 76 24.4 39 3.9 26 26 W 7 11 29.80 1009 10 16 0.00 0.00
6:51 pm 18:51 Clear 74 23.3 37 2.8 26 26 NW 6 9 29.82 1010 10 16 0.00 0.00
7:51 pm 19:51 Clear 68 20 38 3.3 33 33 WNW 8 13 29.83 1010 10 16 0.00 0.00
8:51 pm 20:51 Clear with Light Rain 63 17.2 39 3.9 41 41 E 3 6 29.83 1010 10 16 0.00 0.03
9:51 pm 21:51 Clear 63 17.2 37 2.8 38 38 NNW 3 6 29.84 1011 10 16 0.00 0.03
10:51 pm 22:51 Clear 61 16.1 39 3.9 44 44 ESE 3 6 29.85 1011 10 16 0.00 0.00
11:51 pm 23:51 Clear 60 15.6 38 3.3 44 44 ENE 3 6 29.85 1011 10 16 0.00 0.03

Powered by AerisWeather